Temp
9 8 7 7 7 5 4 3 3 3 4 4 4 5 5 4 3 3 2 2 3 3 4 4 4 4 4 4 5 5 5 5 5 5 5 5 4 4 4 4 4 4 3 3 3 4 4 4 4
8 8 7 7 7 4 3 3 4 3 3 4 5 4 3 3 3 2 1 3 3 4 4 4 4 4 4 4 4 4 4 4 4 5 5 4 4 4 4 4 3 4 3 3 3 3 4 4 4
8 8 7 7 5 4 3 3 3 2 2 2 3 3 4 3 2 2 3 3 3 3 4 4 4 4 4 3 4 4 4 4 4 4 4 5 4 4 4 4 3 4 4 3 3 3 4 4 4
7 8 7 7 5 4 4 3 2 3 4 3 3 4 4 3 3 3 2 2 3 3 3 3 3 3 4 4 4 4 4 4 4 4 4 4 4 4 4 4 3 2 3 3 3 2 3 3 3
7 6 7 5 5 3 3 2 2 3 5 4 3 3 3 3 3 2 2 3 3 3 3 3 3 3 3 3 3 3 3 3 4 3 4 4 3 4 3 3 3 2 2 2 3 2 2 3 3
8 7 6 5 4 3 3 2 3 4 4 5 4 3 3 3 2 2 2 2 2 2 2 2 2 2 1 1 1 1 1 2 2 3 3 3 3 3 3 3 3 3 1 1 1 2 2 2 3
7 6 6 5 4 3 3 2 3 4 4 5 5 3 3 3 2 2 2 2 2 1 1 1 1 1 1 1 1 1 1 1 1 1 2 2 3 3 3 2 2 2 2 1 0 1 1 2 2
7 6 5 5 5 4 4 4 5 4 3 4 3 3 2 2 2 2 1 1 1 1 1 1 1 1 1 1 1 1 1 1 0 0 0 1 1 2 2 2 2 2 2 1 1 0 1 1 2
7 7 5 5 5 6 5 4 5 4 4 4 3 3 2 2 1 1 1 1 1 1 1 1 1 1 1 1 1 1 1 1 0 -0 -0 0 0 1 1 1 1 1 1 1 1 0 0 1 2
8 7 5 4 5 5 5 4 4 4 4 4 3 3 2 2 2 1 1 1 1 1 2 1 1 1 1 1 1 1 0 -1 -1 -1 -2 -1 -1 -0 -0 0 0 0 0 -0 0 -0 0 0 1
7 6 6 5 4 5 5 5 5 5 4 3 3 3 2 2 2 2 1 1 2 1 1 1 1 1 1 1 0 0 -0 -1 -2 -2 -2 -3 -2 -1 -1 -1 -1 -1 -1 -0 -1 -1 -1 -0 1
7 6 6 6 5 5 5 5 5 5 4 3 3 3 2 2 1 1 1 1 1 1 0 0 0 0 0 0 -0 -1 -1 -2 -2 -3 -3 -3 -3 -3 -2 -2 -2 -2 -2 -2 -1 -3 -1 -1 -0
7 7 6 5 5 5 4 4 3 4 3 3 2 2 2 1 1 1 1 1 0 0 0 0 0 -0 -0 -1 -1 -2 -2 -3 -3 -4 -4 -4 -4 -4 -4 -3 -3 -3 -4 -3 -4 -4 -2 -3 -1
7 6 6 5 6 5 4 4 4 3 3 3 2 2 2 1 1 1 1 0 0 0 0 0 -0 -0 -1 -1 -2 -3 -3 -3 -4 -4 -5 -5 -5 -5 -5 -5 -4 -5 -5 -5 -6 -4 -3 -3 -2
6 6 5 4 5 5 4 3 3 3 3 2 2 2 2 1 1 1 0 0 0 0 0 -0 -0 -1 -1 -2 -3 -3 -3 -4 -5 -5 -5 -5 -6 -6 -6 -6 -6 -7 -7 -6 -6 -5 -4 -3 -3
5 4 4 4 4 4 3 3 3 3 3 2 2 2 2 1 1 1 0 0 -0 -0 -0 -1 -1 -1 -2 -3 -4 -4 -4 -5 -5 -5 -5 -6 -6 -7 -7 -7 -8 -8 -8 -7 -6 -5 -5 -4 -3
4 4 4 4 4 3 3 3 3 3 3 3 2 2 1 1 1 0 0 -0 -0 -0 -1 -1 -2 -2 -3 -3 -4 -4 -5 -5 -6 -6 -6 -6 -7 -7 -8 -9 -9 -9 -8 -8 -7 -7 -6 -5 -4
5 4 4 3 3 3 3 3 4 3 3 3 3 2 2 1 0 0 -0 -0 -1 -1 -1 -1 -2 -2 -3 -4 -4 -4 -5 -5 -6 -6 -7 -7 -8 -8 -9 -9 -9 -9 -9 -8 -8 -8 -7 -6 -4
4 4 4 3 3 3 3 3 3 3 3 3 3 2 2 1 0 0 -0 -0 -1 -1 -1 -1 -2 -3 -3 -4 -4 -5 -5 -6 -7 -7 -7 -8 -8 -9 -9 -10 -10 -9 -9 -9 -9 -8 -7 -7 -6
3 3 3 3 3 2 2 4 3 3 3 3 2 2 1 1 0 -0 -0 -0 -1 -1 -2 -2 -3 -3 -4 -4 -5 -5 -6 -7 -7 -8 -8 -9 -10 -10 -10 -11 -11 -10 -10 -10 -9 -9 -8 -7 -6
3 3 3 3 2 2 2 3 3 4 3 3 3 2 2 1 0 0 -0 -1 -1 -2 -2 -3 -3 -4 -4 -5 -5 -6 -7 -7 -7 -8 -8 -9 -10 -11 -11 -11 -11 -11 -10 -10 -10 -10 -9 -7 -7
3 3 2 2 2 1 -0 1 4 4 4 4 3 2 2 1 0 0 -0 -1 -2 -2 -2 -3 -3 -4 -4 -5 -6 -6 -7 -7 -8 -8 -9 -10 -11 -11 -12 -12 -12 -11 -11 -11 -11 -10 -10 -9 -7
2 2 1 1 0 -1 -1 -1 4 3 4 4 3 3 2 1 1 0 -1 -1 -2 -2 -3 -3 -4 -4 -5 -5 -6 -6 -7 -8 -8 -9 -10 -10 -11 -12 -12 -12 -12 -12 -12 -11 -11 -10 -10 -10 -9
1 1 0 -1 -1 -5 0 -1 2 4 5 5 4 3 2 2 1 0 -1 -1 -2 -3 -3 -4 -4 -5 -5 -6 -6 -7 -7 -8 -8 -9 -10 -11 -11 -12 -12 -12 -12 -12 -12 -12 -11 -11 -10 -10 -10
0 0 -1 -5 -7 -7 -1 -3 3 4 4 4 3 3 2 2 1 0 -1 -1 -2 -3 -3 -4 -4 -5 -5 -6 -7 -7 -8 -8 -8 -9 -10 -11 -12 -12 -12 -13 -13 -13 -13 -13 -12 -12 -11 -11 -10
0 0 1 -6 -7 -6 -3 -3 4 5 4 4 3 2 2 1 1 -0 -1 -2 -2 -3 -3 -4 -5 -5 -6 -6 -7 -7 -8 -8 -9 -10 -10 -11 -12 -12 -13 -13 -13 -14 -13 -13 -13 -12 -12 -11 -11
-1 -1 -0 -1 -3 -4 0 1 3 3 4 3 3 3 2 1 0 -0 -1 -2 -2 -3 -4 -4 -5 -5 -6 -6 -7 -8 -8 -8 -9 -10 -11 -12 -12 -13 -13 -13 -13 -14 -14 -13 -13 -13 -13 -12 -11
-1 -0 -1 -1 -7 -9 -3 -1 3 4 3 3 3 3 2 1 0 -0 -1 -2 -2 -3 -4 -4 -5 -5 -6 -7 -7 -8 -8 -8 -9 -9 -10 -11 -12 -12 -13 -13 -13 -14 -14 -14 -14 -13 -13 -13 -12
-1 -1 -1 -1 -1 -8 -9 -1 3 3 3 2 2 2 2 1 0 -1 -1 -2 -2 -3 -4 -5 -5 -6 -6 -7 -7 -8 -8 -8 -9 -9 -9 -10 -11 -12 -12 -13 -13 -14 -14 -14 -14 -14 -14 -13 -13
-2 -1 -1 -0 -2 -2 -5 -1 2 3 2 1 1 2 1 0 -0 -1 -1 -2 -2 -3 -4 -5 -5 -6 -7 -7 -7 -8 -8 -8 -9 -9 -9 -10 -10 -11 -12 -13 -13 -13 -14 -15 -15 -15 -14 -13 -13
Height
3156 3158 3160 3161 3163 3164 3165 3171 3169 3169 3169 3169 3171 3172 3171 3171 3170 3175 3170 3167 3167 3165 3162 3159 3155 3151 3149 3146 3143 3140 3137 3133 3130 3127 3122 3119 3115 3111 3108 3103 3100 3099 3098 3096 3099 3096 3097 3098 3099
3157 3159 3160 3160 3161 3164 3169 3171 3170 3171 3169 3169 3171 3170 3171 3171 3170 3170 3170 3169 3166 3163 3161 3158 3154 3151 3147 3144 3140 3137 3134 3131 3128 3126 3122 3118 3114 3110 3106 3103 3098 3095 3093 3093 3090 3091 3091 3093 3095
3157 3158 3159 3159 3161 3163 3166 3169 3169 3170 3171 3171 3170 3171 3171 3170 3169 3170 3168 3166 3164 3162 3159 3155 3153 3150 3147 3142 3137 3133 3131 3128 3125 3122 3120 3116 3111 3108 3104 3100 3097 3094 3089 3088 3086 3084 3084 3087 3090
3157 3158 3159 3159 3159 3164 3165 3167 3167 3167 3169 3170 3171 3171 3170 3169 3169 3168 3166 3165 3163 3160 3157 3153 3150 3146 3143 3140 3138 3134 3129 3125 3122 3118 3116 3113 3109 3105 3101 3098 3093 3090 3087 3082 3083 3078 3079 3080 3082
3156 3156 3157 3159 3161 3164 3166 3168 3166 3166 3167 3168 3169 3169 3168 3167 3167 3167 3167 3165 3162 3159 3155 3152 3148 3144 3141 3139 3136 3133 3128 3123 3118 3114 3112 3108 3104 3101 3098 3093 3090 3086 3083 3081 3077 3077 3072 3073 3075
3155 3157 3159 3160 3161 3163 3165 3167 3166 3166 3166 3167 3167 3168 3167 3166 3166 3166 3165 3163 3160 3157 3154 3150 3147 3143 3140 3136 3132 3128 3125 3121 3117 3112 3108 3104 3100 3096 3092 3089 3085 3082 3079 3076 3074 3070 3069 3066 3066
3155 3157 3158 3158 3161 3163 3163 3163 3164 3165 3165 3165 3166 3166 3166 3164 3164 3164 3163 3160 3158 3155 3151 3148 3145 3141 3137 3133 3130 3125 3120 3117 3114 3109 3104 3099 3095 3091 3087 3082 3079 3076 3073 3071 3069 3065 3062 3061 3060
3154 3157 3157 3158 3158 3160 3161 3161 3163 3165 3165 3164 3164 3165 3165 3164 3163 3163 3161 3158 3156 3153 3151 3148 3144 3139 3135 3132 3127 3122 3116 3112 3107 3102 3100 3095 3090 3086 3080 3077 3072 3069 3067 3064 3062 3060 3057 3054 3054
3154 3155 3156 3156 3157 3157 3159 3161 3162 3163 3164 3163 3163 3163 3164 3163 3162 3161 3159 3157 3155 3152 3148 3144 3140 3136 3133 3129 3125 3120 3113 3108 3104 3099 3092 3088 3084 3079 3075 3070 3067 3062 3059 3057 3054 3053 3051 3049 3047
3152 3154 3154 3155 3156 3158 3160 3161 3162 3163 3162 3163 3163 3163 3162 3161 3161 3160 3158 3156 3154 3150 3147 3143 3140 3135 3130 3125 3119 3113 3107 3101 3095 3091 3087 3081 3076 3072 3066 3063 3059 3055 3052 3050 3048 3047 3045 3044 3042
3151 3152 3152 3154 3155 3156 3158 3157 3159 3161 3163 3162 3162 3161 3161 3159 3159 3158 3157 3154 3151 3148 3144 3141 3136 3131 3126 3120 3113 3108 3102 3097 3092 3086 3081 3076 3070 3065 3059 3055 3051 3048 3046 3043 3041 3040 3039 3039 3037
3150 3151 3153 3153 3153 3153 3154 3157 3158 3159 3160 3160 3160 3160 3159 3158 3158 3156 3154 3151 3148 3144 3140 3136 3131 3127 3121 3115 3109 3102 3097 3091 3086 3080 3075 3069 3064 3059 3054 3049 3043 3038 3036 3035 3034 3032 3032 3032 3032
3150 3150 3151 3152 3153 3153 3154 3155 3157 3157 3158 3158 3157 3157 3157 3157 3156 3154 3151 3148 3145 3142 3138 3133 3128 3123 3117 3112 3106 3101 3095 3090 3084 3077 3070 3064 3059 3054 3048 3041 3036 3032 3028 3027 3026 3026 3026 3026 3027
3149 3149 3150 3150 3152 3154 3154 3154 3155 3155 3155 3155 3155 3155 3155 3154 3152 3150 3148 3145 3143 3139 3135 3130 3125 3120 3114 3108 3103 3098 3092 3086 3080 3073 3067 3059 3055 3049 3044 3037 3031 3026 3022 3021 3020 3020 3021 3020 3021
3147 3148 3149 3149 3150 3151 3152 3153 3153 3153 3153 3152 3152 3152 3152 3150 3149 3147 3146 3143 3140 3137 3132 3127 3122 3117 3111 3105 3100 3094 3088 3082 3077 3071 3064 3058 3050 3044 3038 3031 3025 3019 3015 3014 3014 3015 3015 3014 3014
3146 3148 3147 3147 3148 3149 3150 3150 3150 3150 3150 3150 3150 3149 3149 3147 3147 3145 3143 3141 3137 3132 3129 3125 3120 3115 3109 3103 3097 3092 3086 3081 3074 3067 3059 3053 3047 3040 3034 3028 3021 3016 3012 3008 3006 3007 3006 3008 3008
3144 3144 3144 3146 3146 3146 3147 3146 3147 3147 3146 3146 3146 3146 3145 3144 3144 3143 3140 3137 3133 3130 3126 3121 3116 3111 3106 3101 3096 3090 3084 3077 3071 3065 3057 3049 3042 3036 3030 3025 3019 3012 3007 3003 3000 3000 3000 3000 3001
3140 3142 3141 3142 3144 3143 3143 3142 3143 3143 3141 3141 3141 3140 3140 3140 3139 3139 3136 3134 3130 3126 3122 3117 3113 3108 3103 3098 3093 3088 3082 3075 3066 3060 3054 3047 3039 3032 3026 3022 3017 3009 3004 3000 2997 2994 2994 2995 2995
3139 3138 3138 3138 3140 3141 3141 3139 3139 3138 3137 3136 3137 3136 3136 3136 3135 3134 3133 3130 3127 3122 3118 3114 3109 3105 3100 3094 3089 3085 3078 3070 3063 3056 3051 3045 3037 3030 3024 3018 3014 3008 3003 2996 2992 2990 2986 2989 2988
3138 3137 3137 3137 3137 3138 3137 3134 3133 3133 3132 3131 3131 3130 3131 3131 3130 3130 3129 3126 3123 3119 3115 3111 3106 3102 3096 3090 3085 3080 3073 3067 3058 3052 3046 3041 3034 3027 3020 3015 3011 3006 3002 2995 2990 2985 2983 2983 2983
3134 3134 3134 3136 3135 3134 3134 3128 3125 3126 3127 3125 3125 3124 3124 3126 3126 3126 3124 3122 3119 3116 3111 3108 3103 3098 3093 3088 3083 3078 3072 3065 3059 3050 3044 3037 3030 3023 3018 3013 3008 3004 2998 2993 2988 2984 2981 2981 2979
3130 3131 3132 3133 3133 3133 3133 3127 3118 3121 3120 3119 3118 3118 3120 3120 3120 3120 3119 3118 3115 3112 3108 3104 3099 3095 3090 3085 3079 3074 3068 3061 3053 3047 3040 3034 3028 3021 3016 3011 3006 3001 2996 2992 2987 2984 2982 2977 2975
3128 3128 3130 3132 3131 3129 3129 3130 3113 3114 3113 3114 3114 3114 3114 3115 3116 3116 3116 3114 3112 3109 3105 3101 3097 3093 3087 3082 3077 3071 3064 3057 3050 3045 3039 3033 3026 3019 3013 3009 3004 2999 2995 2990 2987 2983 2979 2976 2974
3125 3127 3128 3130 3129 3127 3121 3124 3112 3111 3109 3109 3109 3108 3108 3109 3111 3112 3112 3111 3109 3105 3102 3098 3094 3089 3085 3080 3075 3069 3061 3054 3048 3043 3036 3029 3022 3017 3011 3007 3002 2997 2993 2989 2985 2981 2978 2974 2973
3121 3123 3127 3131 3130 3121 3116 3117 3101 3105 3104 3106 3105 3105 3105 3105 3106 3108 3108 3107 3105 3101 3099 3095 3091 3086 3080 3076 3071 3065 3059 3050 3044 3039 3031 3024 3018 3013 3009 3003 2999 2995 2991 2987 2983 2979 2975 2972 2969
3115 3118 3118 3126 3124 3116 3115 3107 3099 3099 3100 3100 3101 3101 3101 3101 3102 3103 3104 3103 3101 3098 3094 3091 3087 3082 3077 3073 3069 3062 3054 3048 3042 3035 3028 3019 3013 3007 3004 3000 2996 2992 2989 2985 2982 2978 2974 2970 2969
3112 3113 3114 3114 3114 3114 3106 3100 3098 3094 3094 3096 3096 3096 3096 3098 3099 3099 3099 3099 3097 3095 3091 3087 3083 3078 3074 3070 3066 3060 3052 3045 3039 3031 3024 3016 3009 3004 3000 2997 2993 2989 2986 2983 2980 2976 2973 2969 2966
3107 3108 3111 3112 3116 3117 3098 3096 3092 3091 3090 3090 3090 3091 3092 3093 3095 3094 3094 3094 3092 3090 3087 3084 3079 3075 3072 3067 3063 3057 3050 3043 3037 3028 3020 3013 3006 3000 2996 2993 2989 2986 2983 2981 2978 2975 2971 2968 2964
3100 3101 3103 3104 3103 3102 3101 3090 3087 3087 3086 3085 3085 3085 3086 3087 3089 3090 3089 3087 3086 3084 3082 3079 3076 3073 3069 3065 3060 3054 3047 3041 3034 3026 3018 3010 3003 2997 2992 2988 2985 2982 2980 2978 2976 2974 2971 2967 2963
3095 3096 3096 3097 3096 3093 3089 3078 3082 3081 3082 3083 3081 3080 3081 3082 3083 3084 3084 3082 3080 3079 3077 3075 3072 3069 3066 3062 3056 3050 3045 3038 3032 3024 3015 3008 3001 2994 2989 2984 2981 2978 2976 2974 2973 2971 2969 2966 2963
Wind_Speed
15 15 14 7 5 8 14 13 10 4 2 9 13 10 15 11 9 5 10 16 14 15 15 16 17 19 19 19 19 19 20 22 22 23 22 24 25 24 24 22 21 22 20 11 26 35 29 33 30
16 17 12 7 12 16 13 9 10 6 7 5 10 14 9 12 12 10 6 10 15 17 17 19 21 22 22 20 19 18 18 18 21 23 25 25 24 24 25 22 19 15 18 15 20 30 39 32 34
18 14 10 8 11 11 13 3 9 9 7 3 1 7 8 9 12 10 13 15 15 16 19 21 21 21 21 23 24 24 23 21 21 23 22 25 27 26 25 25 21 19 16 19 16 28 43 34 34
16 12 8 9 18 15 11 7 6 7 6 6 3 2 6 10 10 12 14 13 15 18 21 23 24 25 25 24 23 22 24 24 24 25 26 25 27 28 27 26 26 23 19 16 22 17 31 42 38
10 6 5 17 15 18 16 10 8 4 2 5 3 3 7 9 11 14 12 12 15 19 21 22 23 24 23 23 23 21 20 23 25 25 26 27 27 26 29 29 27 27 23 18 20 23 21 27 44
7 3 14 16 17 18 17 15 13 9 6 2 4 5 5 8 12 10 10 13 17 20 22 23 22 23 24 26 24 25 25 24 24 26 28 28 29 30 29 30 30 30 27 23 21 24 25 25 32
12 3 12 15 18 17 17 14 10 5 3 1 3 4 5 9 7 9 12 15 17 19 19 20 22 25 27 28 29 30 30 30 27 27 28 31 30 32 32 33 32 31 31 28 25 23 22 23 25
12 10 15 12 17 18 17 15 7 5 5 3 1 3 5 6 7 9 13 16 20 21 22 24 26 27 29 30 31 31 32 32 32 31 29 30 33 33 34 34 34 32 31 31 29 26 24 21 24
13 11 15 14 16 12 15 12 8 7 6 4 1 2 4 6 8 10 14 17 18 19 21 23 26 29 30 32 32 34 35 35 34 33 33 32 32 35 35 36 35 34 31 32 31 29 25 21 22
12 11 15 13 12 9 11 11 10 8 6 4 2 3 5 6 7 10 12 15 16 18 21 24 26 29 32 35 37 39 40 40 41 40 35 31 30 33 36 38 37 36 33 30 31 29 27 23 19
13 17 16 16 17 15 13 13 11 7 4 4 2 4 5 5 7 10 12 13 15 19 23 26 29 33 35 37 39 40 42 42 41 38 37 34 31 32 35 35 39 38 35 30 29 28 25 23 17
14 17 15 16 16 14 13 11 8 4 5 5 4 6 6 6 7 10 12 13 18 21 25 28 31 33 37 38 40 43 44 43 43 43 40 39 36 33 34 35 36 38 38 31 26 24 23 21 17
15 16 18 17 15 15 12 11 9 8 8 7 6 6 6 7 7 10 11 16 19 22 26 29 32 35 38 39 40 42 42 44 43 41 40 37 36 34 34 37 37 34 35 33 24 20 23 19 20
12 14 17 17 15 11 12 13 11 10 9 9 9 7 8 7 7 10 13 17 19 22 26 29 32 36 38 39 40 40 42 43 42 40 38 38 37 38 37 37 38 36 32 30 25 20 18 17 19
10 15 17 16 15 14 13 13 13 12 11 11 10 10 10 8 8 9 12 16 19 21 26 30 32 36 37 38 39 41 43 42 39 36 38 39 40 39 39 39 37 37 31 27 26 18 22 17 16
14 14 16 17 16 15 14 11 12 12 13 13 13 12 12 9 8 10 13 17 20 23 27 30 33 35 36 36 37 40 41 40 36 35 39 41 40 40 38 37 36 38 33 28 23 25 16 25 23
17 12 18 14 16 17 16 13 12 12 14 15 14 14 14 12 10 11 15 18 21 23 27 31 32 35 35 35 36 38 39 36 33 35 38 42 41 39 36 34 33 32 34 31 24 23 25 21 26
14 17 16 16 13 19 18 21 17 16 17 17 17 17 16 14 13 12 15 18 21 24 28 31 33 34 34 34 35 36 37 35 35 36 37 39 39 38 36 32 30 29 31 30 24 20 22 17 23
8 15 15 15 16 15 18 22 19 19 20 21 20 20 18 15 15 14 15 19 21 25 28 31 32 33 34 34 36 37 37 36 35 37 37 36 37 36 34 34 29 28 29 29 25 21 15 20 20
10 15 17 16 15 15 16 22 23 22 21 24 24 24 22 17 17 15 17 20 22 25 29 31 32 34 34 35 36 37 36 35 38 37 37 36 36 34 33 33 30 29 26 24 27 24 20 13 14
19 20 20 17 12 16 17 27 29 24 22 24 24 26 24 19 18 16 18 21 23 26 29 31 33 33 33 34 34 34 33 34 35 37 37 38 36 33 31 31 31 30 30 27 24 23 18 14 7
19 20 19 16 10 7 12 9 25 21 22 24 25 26 22 19 19 18 18 21 23 26 29 31 32 32 32 33 34 35 35 36 38 39 37 36 35 32 30 29 29 28 29 29 24 24 17 11 11
16 17 16 13 13 11 14 9 20 21 24 20 20 20 21 20 19 18 19 21 23 26 29 30 31 31 30 32 33 35 35 35 38 39 37 35 33 32 30 28 27 26 26 28 26 18 21 16 10
15 13 12 10 9 5 16 16 15 20 10 9 14 17 21 19 17 19 19 21 23 26 27 29 29 29 29 31 32 34 35 36 39 38 38 37 34 31 29 26 24 24 24 26 26 24 20 20 14
19 14 3 2 2 6 7 12 26 18 18 15 15 15 18 18 18 17 18 20 22 25 27 28 28 27 28 30 31 33 34 38 40 41 42 40 36 32 29 27 25 24 23 24 24 25 22 21 16
24 22 8 7 3 3 8 11 9 16 16 18 17 18 19 19 17 16 18 20 22 24 25 26 26 26 27 28 30 33 35 39 42 42 43 41 37 35 32 28 25 23 22 23 22 23 23 23 19
23 24 21 4 4 1 9 15 24 29 20 16 17 20 20 19 16 17 18 20 22 24 25 25 25 25 25 26 29 31 35 38 42 44 44 40 36 33 30 27 26 23 22 21 23 21 22 22 21
19 17 11 12 2 4 6 9 18 17 20 16 17 18 18 18 18 18 18 19 21 22 24 24 23 24 24 25 28 31 35 38 42 45 44 40 36 32 30 27 24 22 21 20 21 19 19 21 22
29 26 16 9 7 5 2 7 14 18 18 17 17 16 19 18 17 18 18 19 21 22 22 22 22 22 23 25 27 31 34 37 41 44 44 41 38 33 29 26 24 22 19 18 19 19 18 17 19
28 29 29 13 8 11 5 20 29 26 19 21 19 20 20 20 18 18 20 20 20 21 21 21 21 21 21 24 27 31 34 37 40 42 42 41 38 33 29 25 23 23 20 18 17 18 17 16 16
Wind_Direction
122 118 108 100 85 102 102 92 124 97 114 81 88 107 82 84 82 63 8 8 357 358 3 5 5 5 6 5 4 1 358 354 353 348 345 341 340 340 340 343 334 288 296 270 265 245 242 239 236
121 123 117 83 108 102 92 146 183 107 85 55 67 59 73 67 67 45 26 359 4 5 5 7 7 5 360 356 356 357 352 351 346 343 339 334 333 332 331 334 337 302 315 285 245 250 248 239 241
129 132 125 113 121 117 127 184 122 128 140 186 334 67 62 60 51 35 22 12 5 5 5 4 1 359 357 356 352 349 347 346 342 338 334 330 328 325 323 323 324 323 292 283 272 247 231 244 243
124 138 124 145 127 125 130 132 129 152 147 156 111 111 58 53 40 28 21 11 6 4 3 359 358 359 357 354 349 346 343 342 341 337 332 326 322 320 318 316 315 318 317 260 277 255 249 240 248
148 133 158 133 130 137 136 137 179 221 140 104 123 103 58 47 32 21 9 6 4 2 359 358 358 358 359 358 357 351 343 343 338 334 332 325 316 312 312 311 309 309 309 298 268 284 274 257 241
144 174 147 137 143 147 148 176 204 209 168 143 128 100 52 40 27 8 360 4 4 1 0 359 3 2 2 0 356 350 348 345 338 331 327 324 318 314 306 303 304 301 301 299 296 280 279 265 250
129 146 158 159 156 155 157 178 197 203 204 252 20 47 21 31 10 360 3 5 2 359 359 3 3 359 355 350 346 343 338 335 332 329 325 318 318 313 307 301 299 297 295 294 292 291 292 281 266
175 192 171 186 175 170 180 192 199 180 208 245 38 10 4 6 358 3 5 3 1 357 358 357 355 353 349 346 345 342 336 335 332 324 316 310 308 306 304 298 294 293 290 289 290 290 289 283 271
193 185 188 194 196 196 192 200 199 200 198 231 277 327 349 353 359 5 6 1 356 355 353 354 352 349 349 349 347 343 341 340 338 337 331 320 306 297 296 297 293 290 288 286 287 287 289 291 281
186 186 181 201 227 226 197 196 216 210 215 217 234 323 343 345 353 1 2 356 354 350 351 350 347 349 349 349 349 348 347 345 343 341 337 330 316 308 298 293 293 290 284 282 283 286 286 289 287
195 204 206 203 219 229 214 212 213 202 197 233 294 312 318 326 345 354 354 354 349 350 349 348 350 350 351 349 351 348 347 344 343 341 338 333 325 310 305 296 289 289 285 278 276 279 281 284 283
208 209 226 216 222 227 224 230 250 245 249 261 278 300 303 319 343 352 349 352 353 350 347 350 349 350 349 351 351 348 346 346 343 341 337 334 329 322 309 308 304 296 291 287 274 282 276 281 280
218 220 216 220 215 214 221 232 232 247 257 268 278 288 294 307 333 346 345 353 350 346 347 347 348 348 349 350 350 347 345 344 342 338 337 337 334 334 328 318 312 305 297 292 286 274 303 274 280
223 214 210 212 217 215 218 232 239 251 255 270 280 283 287 300 330 342 347 345 344 345 346 346 346 346 348 348 348 346 345 342 340 339 342 343 344 341 338 331 322 315 306 297 283 287 290 263 275
211 203 203 214 222 225 230 234 235 248 260 267 273 278 283 294 320 336 336 338 338 342 345 344 344 346 346 347 346 345 344 343 341 342 344 343 343 345 342 335 327 323 316 300 282 273 252 266 275
186 192 204 217 224 227 233 243 244 254 262 266 273 278 282 287 307 323 325 332 337 342 343 342 342 344 345 346 346 344 343 342 341 343 345 344 343 344 344 339 333 329 330 310 284 251 273 266 251
193 211 215 222 228 235 239 252 253 259 269 270 273 277 278 282 288 312 317 327 334 337 339 340 341 342 344 345 344 343 343 339 341 345 344 342 342 344 344 341 335 329 333 323 302 267 261 272 268
220 216 222 230 244 239 247 258 265 271 273 275 274 274 275 278 277 297 312 322 327 332 336 338 339 338 340 344 343 343 341 338 342 345 345 341 340 342 342 341 337 330 334 329 310 277 253 260 255
232 227 237 237 243 248 255 263 268 270 274 278 277 274 276 275 270 284 308 315 324 328 333 335 335 335 339 341 342 342 342 343 345 345 345 341 339 340 342 339 339 335 335 335 333 314 292 265 275
230 227 236 247 250 250 255 267 269 267 277 277 277 273 275 273 266 279 298 310 319 326 329 332 333 334 338 341 341 342 344 346 345 347 344 343 341 341 340 336 337 340 334 336 338 336 303 284 267
228 239 243 244 244 247 256 270 267 274 269 270 275 272 270 269 263 272 291 304 316 323 324 329 332 332 337 339 340 342 346 345 346 345 344 343 343 340 337 334 332 333 338 339 336 343 318 284 268
231 236 236 241 243 238 232 283 278 282 277 273 271 269 272 263 262 268 283 298 309 317 321 327 329 330 335 338 338 341 346 349 349 346 345 344 342 338 334 332 331 331 331 335 345 338 339 290 258
226 228 232 240 229 254 239 244 276 285 286 292 276 273 271 260 255 266 278 292 303 311 317 324 327 329 334 336 337 342 346 351 350 346 344 343 342 339 334 331 329 330 332 332 338 340 350 334 292
229 216 213 220 230 265 255 226 266 278 286 262 265 263 261 253 248 261 272 288 299 306 314 323 325 327 333 335 338 342 345 350 348 345 343 342 343 342 336 332 332 333 335 335 337 347 346 349 325
213 194 169 283 232 222 241 215 261 274 277 273 272 260 249 241 245 258 270 284 294 303 313 322 324 327 333 335 339 341 345 349 346 344 343 342 342 342 338 334 334 335 337 339 337 339 343 350 336
211 202 200 204 197 254 219 233 269 281 283 278 273 263 242 240 248 260 270 281 292 302 312 321 322 327 332 335 338 341 346 349 344 343 343 341 340 339 337 333 330 330 332 333 339 337 340 338 356
213 213 225 248 263 297 239 260 272 277 284 284 279 272 261 245 253 263 273 282 293 302 312 321 322 327 332 335 337 340 347 347 344 343 344 343 340 336 332 329 326 327 328 327 333 337 337 339 342
214 216 206 208 168 264 265 240 246 284 290 288 281 284 255 244 255 265 275 285 293 301 312 319 321 326 331 336 336 342 347 344 343 345 345 345 342 337 331 325 322 322 323 323 324 333 336 340 332
212 216 213 208 210 188 241 239 269 278 276 280 286 269 248 245 257 263 274 284 294 300 311 317 320 325 330 335 337 343 345 343 344 346 346 346 344 341 335 326 320 318 317 318 321 329 335 337 336
225 232 230 222 214 221 264 265 276 281 279 272 273 263 246 243 253 265 272 281 292 299 310 315 318 324 329 334 339 344 343 343 345 346 347 347 346 344 340 332 323 317 314 311 314 322 328 339 340